Location: Bittelbronn
(48.4454°N, 8.5870°E)
Time: 16:31:28
(UTC+00:00)

Cosmos 2251 Rocket - Pass Details

Date: 23 May 2024
Orbit: 762 x 790 km, 74.0° (Epoch: 16 June)

Event Time Altitude Azimuth Distance (km) Brightness Sun altitude
Exits shadow 00:44:25 22° 248° (WSW) 1,638 4.8 -18.5°
Maximum altitude 00:47:14 38° 302° (WNW) 1,161 4.5 -18.4°
Drops below altitude 10° 00:52:10 10° 11° (N) 2,331 7.2 -18.1°
Sets 00:54:44 0° 19° (NNE) 3,267 8.5 -17.9°
